TimeCST,TemperatureF,Dew PointF,Humidity,Sea Level PressureIn,VisibilityMPH,Wind Direction,Wind SpeedMPH,Gust SpeedMPH,PrecipitationIn,Events,Conditions,WindDirDegrees,DateUTC
12:15 AM,26.2,21.4,82,30.07,10.0,Calm,Calm,-,N/A,,Clear,0,2013-01-26 06:15:00
12:35 AM,25.5,21.2,84,30.07,10.0,Calm,Calm,-,N/A,,Clear,0,2013-01-26 06:35:00
12:55 AM,25.3,21.4,85,30.06,10.0,Calm,Calm,-,N/A,,Clear,0,2013-01-26 06:55:00
1:15 AM,25.5,21.7,86,30.06,10.0,Calm,Calm,-,N/A,,Clear,0,2013-01-26 07:15:00
1:35 AM,23.4,19.9,87,30.05,10.0,Calm,Calm,-,N/A,,Clear,0,2013-01-26 07:35:00
1:55 AM,23.2,20.5,89,30.04,10.0,Calm,Calm,-,N/A,,Clear,0,2013-01-26 07:55:00
2:15 AM,23.4,19.6,85,30.04,10.0,Calm,Calm,-,N/A,,Clear,0,2013-01-26 08:15:00
2:35 AM,27.9,24.1,86,30.03,10.0,South,3.5,-,N/A,,Clear,190,2013-01-26 08:35:00
2:55 AM,31.6,24.3,74,30.03,10.0,SSW,3.5,-,N/A,,Clear,210,2013-01-26 08:55:00
3:15 AM,30.7,23.9,76,30.03,10.0,SW,3.5,-,N/A,,Clear,220,2013-01-26 09:15:00
3:35 AM,31.3,24.4,76,30.02,10.0,SSW,5.8,-,N/A,,Clear,210,2013-01-26 09:35:00
3:55 AM,29.8,22.6,75,30.01,10.0,Calm,Calm,-,N/A,,Clear,0,2013-01-26 09:55:00
4:15 AM,30.4,24.8,80,30.00,10.0,Calm,Calm,-,N/A,,Clear,0,2013-01-26 10:15:00
4:35 AM,31.1,24.3,76,29.99,10.0,SSW,4.6,-,N/A,,Clear,210,2013-01-26 10:35:00
4:55 AM,34.0,25.2,70,29.99,10.0,SSW,4.6,-,N/A,,Clear,210,2013-01-26 10:55:00
5:15 AM,34.7,25.2,68,29.99,10.0,SW,8.1,-,N/A,,Clear,220,2013-01-26 11:15:00
5:35 AM,33.4,24.4,70,30.00,10.0,WSW,4.6,-,N/A,,Clear,240,2013-01-26 11:35:00
5:55 AM,33.3,24.4,70,29.99,10.0,SSW,8.1,-,N/A,,Clear,200,2013-01-26 11:55:00
6:15 AM,34.3,24.8,68,29.99,10.0,SSW,6.9,-,N/A,,Clear,200,2013-01-26 12:15:00
6:35 AM,34.0,24.4,68,29.98,10.0,SSW,8.1,-,N/A,,Clear,210,2013-01-26 12:35:00
7:15 AM,34.0,24.3,68,29.98,10.0,SW,9.2,-,N/A,,Scattered Clouds,220,2013-01-26 13:15:00
7:35 AM,32.4,23.9,71,29.98,10.0,SSW,6.9,-,N/A,,Clear,210,2013-01-26 13:35:00
7:55 AM,33.1,24.1,70,29.98,10.0,SW,6.9,-,N/A,,Scattered Clouds,220,2013-01-26 13:55:00
8:15 AM,34.5,24.6,67,29.99,10.0,SW,9.2,-,N/A,,Mostly Cloudy,220,2013-01-26 14:15:00
8:35 AM,34.5,24.4,67,29.99,10.0,SSW,9.2,-,N/A,,Mostly Cloudy,200,2013-01-26 14:35:00
8:55 AM,34.7,24.4,66,29.98,10.0,SSW,9.2,-,N/A,,Scattered Clouds,200,2013-01-26 14:55:00
9:15 AM,37.6,25.7,62,29.99,10.0,SSW,9.2,-,N/A,,Mostly Cloudy,210,2013-01-26 15:15:00
9:35 AM,37.4,25.2,61,29.98,10.0,SSW,10.4,-,N/A,,Scattered Clouds,200,2013-01-26 15:35:00
9:55 AM,40.3,25.7,56,29.97,10.0,SSW,10.4,-,N/A,,Clear,200,2013-01-26 15:55:00
10:15 AM,42.4,25.7,52,29.97,10.0,South,12.7,-,N/A,,Clear,190,2013-01-26 16:15:00
10:35 AM,44.8,25.7,47,29.97,10.0,SSW,6.9,-,N/A,,Clear,200,2013-01-26 16:35:00
10:55 AM,46.8,25.7,44,29.96,10.0,South,10.4,-,N/A,,Clear,190,2013-01-26 16:55:00
11:15 AM,48.0,25.5,41,29.97,10.0,South,10.4,-,N/A,,Clear,190,2013-01-26 17:15:00
11:35 AM,50.4,25.0,37,29.96,10.0,South,9.2,-,N/A,,Clear,180,2013-01-26 17:35:00
11:55 AM,50.4,25.3,38,29.96,10.0,SW,10.4,-,N/A,,Clear,220,2013-01-26 17:55:00
12:15 PM,51.6,24.8,35,29.94,10.0,SSW,10.4,-,N/A,,Clear,200,2013-01-26 18:15:00
12:35 PM,52.2,25.0,35,29.93,10.0,SSW,10.4,-,N/A,,Clear,210,2013-01-26 18:35:00
12:55 PM,53.2,24.8,33,29.92,10.0,South,11.5,16.1,N/A,,Clear,180,2013-01-26 18:55:00
1:15 PM,54.0,24.8,32,29.91,10.0,SSW,11.5,18.4,N/A,,Clear,210,2013-01-26 19:15:00
1:35 PM,55.2,24.8,31,29.90,10.0,SSW,12.7,-,N/A,,Clear,210,2013-01-26 19:35:00
1:55 PM,55.6,25.2,31,29.89,10.0,South,10.4,-,N/A,,Clear,190,2013-01-26 19:55:00
2:15 PM,56.5,25.3,30,29.88,10.0,South,8.1,-,N/A,,Clear,190,2013-01-26 20:15:00
2:35 PM,57.2,25.2,29,29.87,10.0,South,6.9,-,N/A,,Clear,180,2013-01-26 20:35:00
2:55 PM,56.3,25.3,30,29.87,10.0,South,9.2,-,N/A,,Clear,180,2013-01-26 20:55:00
3:15 PM,55.8,25.2,31,29.87,10.0,South,12.7,-,N/A,,Clear,180,2013-01-26 21:15:00
3:35 PM,56.1,25.5,31,29.87,10.0,South,10.4,-,N/A,,Clear,180,2013-01-26 21:35:00
3:55 PM,54.7,25.3,32,29.87,10.0,South,11.5,-,N/A,,Clear,190,2013-01-26 21:55:00
4:15 PM,53.8,25.3,33,29.86,10.0,South,12.7,-,N/A,,Clear,190,2013-01-26 22:15:00
4:35 PM,52.9,25.2,34,29.86,10.0,South,10.4,-,N/A,,Clear,190,2013-01-26 22:35:00
4:55 PM,52.3,24.8,34,29.85,10.0,South,9.2,-,N/A,,Clear,190,2013-01-26 22:55:00
5:15 PM,50.9,24.6,36,29.85,10.0,South,11.5,-,N/A,,Clear,180,2013-01-26 23:15:00
5:35 PM,49.3,25.2,39,29.85,10.0,South,11.5,-,N/A,,Clear,180,2013-01-26 23:35:00
5:55 PM,46.9,25.3,43,29.85,10.0,South,12.7,-,N/A,,Clear,190,2013-01-26 23:55:00
6:15 PM,45.7,25.7,46,29.86,10.0,South,6.9,-,N/A,,Clear,170,2013-01-27 00:15:00
6:35 PM,45.5,26.1,47,29.86,10.0,South,8.1,-,N/A,,Clear,170,2013-01-27 00:35:00
6:55 PM,44.1,26.2,50,29.86,10.0,South,8.1,-,N/A,,Clear,180,2013-01-27 00:55:00
7:15 PM,44.2,26.6,50,29.86,10.0,South,6.9,-,N/A,,Clear,180,2013-01-27 01:15:00
7:35 PM,43.5,26.8,52,29.86,10.0,South,6.9,-,N/A,,Clear,190,2013-01-27 01:35:00
7:55 PM,43.9,27.3,52,29.85,10.0,South,8.1,-,N/A,,Clear,190,2013-01-27 01:55:00
8:15 PM,43.0,27.5,54,29.85,10.0,South,3.5,-,N/A,,Clear,170,2013-01-27 02:15:00
8:35 PM,42.1,27.5,56,29.85,10.0,South,4.6,-,N/A,,Clear,180,2013-01-27 02:35:00
8:55 PM,40.3,27.3,60,29.84,10.0,South,4.6,-,N/A,,Clear,170,2013-01-27 02:55:00
9:15 PM,43.7,27.7,53,29.84,10.0,South,6.9,-,N/A,,Clear,190,2013-01-27 03:15:00
9:35 PM,43.7,27.3,53,29.83,10.0,SSW,5.8,-,N/A,,Clear,200,2013-01-27 03:35:00
9:55 PM,43.2,27.0,53,29.84,10.0,SSW,4.6,-,N/A,,Clear,200,2013-01-27 03:55:00
10:15 PM,43.0,26.6,52,29.83,10.0,South,3.5,-,N/A,,Clear,190,2013-01-27 04:15:00
10:35 PM,42.6,26.6,53,29.83,10.0,Calm,Calm,-,N/A,,Clear,0,2013-01-27 04:35:00
10:55 PM,41.9,26.6,55,29.82,10.0,South,3.5,-,N/A,,Clear,190,2013-01-27 04:55:00
11:15 PM,41.0,26.6,57,29.82,10.0,Calm,Calm,-,N/A,,Clear,0,2013-01-27 05:15:00
11:35 PM,40.6,26.6,57,29.82,10.0,Calm,Calm,-,N/A,,Clear,0,2013-01-27 05:35:00
11:55 PM,38.5,26.4,62,29.81,10.0,Calm,Calm,-,N/A,,Clear,0,2013-01-27 05:55:00